Location: Bercimuel
(41.3983°N, 3.5711°W)
Time: 15:54:56
(UTC+00:00)

SL-16 R/B - Pass Details

Date: 15 May 2026
Orbit: 841 x 844 km, 71.0° (Epoch: 10 June)

Event Time Altitude Azimuth Distance (km) Brightness Sun altitude
Rises 21:05:35 0° 338° (NNW) 3,412 6.6 -15.9°
Reaches altitude 10° 21:08:04 10° 342° (NNW) 2,473 5.6 -16.3°
Maximum altitude 21:13:42 63° 64° (ENE) 939 2.3 -17.0°
Enters shadow 21:16:34 29° 136° (SE) 1,499 2.9 -17.4°
